User: anonymous   Login
Location: Falniów
(50.3639°N, 19.9642°E)
Time: 13:29:19
(UTC+00:00)
Language:

SOZ - Orbit

View from above orbital plane
View from above orbital plane
View from above satellite
View from above satellite

Ground track
Ground track

The orbit is defined by the following mean orbital elements,

1 14277U          26067.02757501 +.00000000 +00000-0 +15846-2 0 00008
2 14277  51.9265  76.9669 5399839 104.7548 318.6213  4.93614243    09
Epoch (UTC): 08 March 2026 00:39:42
Eccentricity: 0.5399839
inclination: 51.9265°
perigee height: 325 km
apogee height: 16060 km
right ascension of ascending node: 76.9669°
argument of perigee: 104.7548°
revolutions per day: 4.93614243
mean anomaly at epoch: 318.6213°

The dashed part of the orbit path shows where the satellite is in the earth's shadow,  

DLR